Weather History for KSUX - December, 2012

Change the Weather History Date:

Wednesday, December 12, 2012

  Actual Average Record
Temperature  
Mean Temperature 41 °F 23 °F  
Max Temperature 53 °F 32 °F 60 °F (1921)
Min Temperature 29 °F 14 °F -15 °F (1932)
Degree Days  
Heating Degree Days 24 42  
Month to date heating degree days 356 481  
Since 1 July heating degree days 1828 1957  
Cooling Degree Days 0 0  
Month to date cooling degree days 0 0  
Year to date cooling degree days 1249 869  
Moisture  
Dew Point 17 °F    
Average Humidity 47    
Maximum Humidity 68    
Minimum Humidity 26    
Precipitation  
Precipitation 0.00 in 0.03 in 0.79 in (1991)
Month to date precipitation 0.10 0.37  
Year to date precipitation 22.55 27.31  
Snow  
Snow 0.00 in 0.30 in 5.60 in (1972)
Month to date snowfall 0.5 3.2  
Since 1 July snowfall 0.6 8.6  
Snow Depth 0.00 in    
Sea Level Pressure  
Sea Level Pressure 29.92 in    
Wind  
Wind Speed 17 mph (South)    
Max Wind Speed 31 mph    
Max Gust Speed 38 mph    
Visibility 10 miles    
Events      
T = Trace of Precipitation, MM = Missing Value Source: NWS Daily Summary

Daily Weather History Graph

Daily Weather History Graph

Search for Another Location

Airport or City:

Trip Planner

Search our weather history database for the weather conditions in past years. The results will help you decide how hot, cold, wet, or windy it might be!

Date:

Astronomy

Dec. 12, 2012 Rise Set
Actual Time 7:45 AM CST 4:53 PM CST
Civil Twilight 7:14 AM CST 5:24 PM CST
Nautical Twilight 6:38 AM CST 6:00 PM CST
Astronomical Twilight 6:04 AM CST 6:34 PM CST
Moon 6:51 AM CST (12/12) 4:31 PM CST (12/12)
Length of Visible Light 10h 10m
Length of Day
9h 07m
Waning Crescent, 1% of the Moon is Illuminated
Dec 12
Waning Crescent
Dec 13
New
Dec 19
First Quarter
Dec 28
Full
Jan 4
Last Quarter

Hourly Weather History & Observations

Time (CST) Temp. Windchill Dew Point Humidity Pressure Visibility Wind Dir Wind Speed Gust Speed Precip Events Conditions
12:52 AM 30.0 °F 20.0 °F 16.0 °F 56% 29.95 in 10.0 mi SSW 12.7 mph - N/A   Clear
1:52 AM 32.0 °F 22.1 °F 16.0 °F 52% 29.94 in 10.0 mi SSW 13.8 mph - N/A   Clear
2:52 AM 30.9 °F 19.8 °F 16.0 °F 54% 29.94 in 10.0 mi SSW 16.1 mph - N/A   Clear
3:52 AM 30.9 °F 19.8 °F 16.0 °F 54% 29.93 in 10.0 mi SSW 16.1 mph 24.2 mph N/A   Clear
4:52 AM 30.9 °F 19.4 °F 17.1 °F 57% 29.92 in 10.0 mi South 17.3 mph - N/A   Partly Cloudy
5:52 AM 30.9 °F 19.4 °F 17.1 °F 57% 29.92 in 10.0 mi South 17.3 mph - N/A   Partly Cloudy
6:52 AM 30.9 °F 20.2 °F 16.0 °F 54% 29.93 in 10.0 mi South 15.0 mph - N/A   Clear
7:52 AM 30.9 °F 19.8 °F 16.0 °F 54% 29.94 in 10.0 mi South 16.1 mph - N/A   Clear
8:52 AM 34.0 °F 24.2 °F 17.1 °F 50% 29.94 in 10.0 mi South 15.0 mph 23.0 mph N/A   Clear
9:52 AM 36.0 °F 25.3 °F 17.1 °F 46% 29.96 in 10.0 mi South 19.6 mph 26.5 mph N/A   Clear
10:52 AM 41.0 °F 31.9 °F 18.0 °F 40% 29.95 in 10.0 mi South 19.6 mph 26.5 mph N/A   Clear
11:52 AM 46.0 °F 38.5 °F 18.0 °F 33% 29.92 in 10.0 mi South 19.6 mph 24.2 mph N/A   Clear
12:52 PM 50.0 °F - 18.0 °F 28% 29.90 in 10.0 mi South 23.0 mph 31.1 mph N/A   Clear
1:52 PM 51.8 °F - 17.6 °F 26% 29.85 in 10.0 mi SSW 23.0 mph 34.5 mph N/A   Clear
2:52 PM 52.0 °F - 17.1 °F 25% 29.86 in 10.0 mi South 25.3 mph 32.2 mph N/A   Clear
3:52 PM 52.0 °F - 17.1 °F 25% 29.87 in 10.0 mi South 24.2 mph 32.2 mph N/A   Clear
4:52 PM 48.0 °F - 17.1 °F 29% 29.88 in 10.0 mi South 16.1 mph - N/A   Clear
5:52 PM 44.1 °F 39.0 °F 17.1 °F 34% 29.90 in 10.0 mi South 9.2 mph - N/A   Clear
6:52 PM 44.1 °F 39.0 °F 17.1 °F 34% 29.91 in 10.0 mi SSE 9.2 mph 20.7 mph N/A   Clear
7:52 PM 44.1 °F 37.4 °F 17.1 °F 34% 29.92 in 10.0 mi South 13.8 mph - N/A   Clear
8:52 PM 44.1 °F 36.2 °F 17.1 °F 34% 29.93 in 10.0 mi South 18.4 mph 25.3 mph N/A   Clear
9:52 PM 43.0 °F 35.4 °F 17.1 °F 35% 29.93 in 10.0 mi South 16.1 mph 24.2 mph N/A   Clear
10:52 PM 39.9 °F 31.4 °F 17.1 °F 40% 29.94 in 10.0 mi South 16.1 mph - N/A   Clear
11:52 PM 39.0 °F 30.3 °F 17.1 °F 41% 29.93 in 10.0 mi South 16.1 mph - N/A   Clear